| time (UTC) | temp F | wind direction | speed MPH | gust MPH | rain 1hr in | rain 24hr in | rain mn in | humidity % | barometer mb |
| 20260906215414 | 95 | 183 | 12.0 | 14.0 | 0.00 | 0.01 | 0.01 | 22 | 1017.6 |
| 20260906214912 | 95 | 190 | 10.0 | 11.0 | 0.00 | 0.01 | 0.01 | 22 | 1017.7 |
| 20260906214411 | 94 | 243 | 5.0 | 6.0 | 0.00 | 0.01 | 0.01 | 22 | 1017.7 |
| 20260906213910 | 95 | 193 | 13.0 | 15.0 | 0.00 | 0.01 | 0.01 | 22 | 1017.8 |
| 20260906213405 | 95 | 222 | 8.0 | 9.0 | 0.00 | 0.01 | 0.01 | 22 | 1018.1 |
| 20260906212902 | 95 | 188 | 9.0 | 10.0 | 0.00 | 0.01 | 0.01 | 22 | 1018.0 |
| 20260906212358 | 96 | 166 | 9.0 | 14.0 | 0.00 | 0.01 | 0.01 | 22 | 1018.2 |
| 20260906211858 | 94 | 291 | 4.0 | 6.0 | 0.00 | 0.01 | 0.01 | 23 | 1017.7 |
| 20260906211353 | 94 | 246 | 9.0 | 10.0 | 0.00 | 0.01 | 0.01 | 24 | 1018.1 |
| 20260906210848 | 95 | 265 | 4.0 | 5.0 | 0.00 | 0.01 | 0.01 | 24 | 1018.1 |
| 20260906210343 | 94 | 177 | 7.0 | 8.0 | 0.00 | 0.01 | 0.01 | 23 | 1018.6 |
| 20260906205838 | 94 | 146 | 5.0 | 6.0 | 0.00 | 0.01 | 0.01 | 23 | 1018.2 |
| 20260906205334 | 93 | 177 | 10.0 | 15.0 | 0.00 | 0.01 | 0.01 | 23 | 1018.4 |
| 20260906204830 | 93 | 199 | 6.0 | 7.0 | 0.00 | 0.01 | 0.01 | 23 | 1018.4 |
| 20260906204329 | 94 | 225 | 8.0 | 9.0 | 0.00 | 0.01 | 0.01 | 23 | 1018.6 |
| 20260906203828 | 93 | 203 | 9.0 | 10.0 | 0.00 | 0.01 | 0.01 | 25 | 1018.7 |
| 20260906203324 | 93 | 235 | 11.0 | 13.0 | 0.00 | 0.01 | 0.01 | 25 | 1018.9 |
| 20260906202821 | 94 | 225 | 7.0 | 9.0 | 0.00 | 0.01 | 0.01 | 24 | 1018.8 |
| 20260906202320 | 93 | 179 | 12.0 | 15.0 | 0.00 | 0.01 | 0.01 | 25 | 1018.9 |
| 20260906201815 | 93 | 181 | 13.0 | 23.0 | 0.00 | 0.01 | 0.01 | 24 | 1019.0 |
| 20260906201314 | 92 | 225 | 3.0 | 3.0 | 0.00 | 0.01 | 0.01 | 26 | 1019.0 |
| 20260906200810 | 92 | 226 | 9.0 | 10.0 | 0.00 | 0.01 | 0.01 | 26 | 1019.3 |
| 20260906200306 | 92 | 153 | 9.0 | 11.0 | 0.00 | 0.01 | 0.01 | 25 | 1019.1 |
| 20260906195801 | 93 | 233 | 7.0 | 9.0 | 0.00 | 0.01 | 0.01 | 26 | 1019.1 |
| 20260906195257 | 91 | 311 | 3.0 | 5.0 | 0.00 | 0.01 | 0.01 | 27 | 1019.5 |
| 20260906194753 | 92 | 226 | 7.0 | 8.0 | 0.00 | 0.01 | 0.01 | 27 | 1019.6 |
| 20260906194249 | 92 | 240 | 17.0 | 20.0 | 0.00 | 0.01 | 0.01 | 27 | 1019.1 |
| 20260906193748 | 92 | 141 | 5.0 | 6.0 | 0.00 | 0.01 | 0.01 | 27 | 1019.4 |
| 20260906193244 | 91 | 235 | 3.0 | 3.0 | 0.00 | 0.01 | 0.01 | 28 | 1020.1 |
| 20260906192740 | 91 | 207 | 6.0 | 7.0 | 0.00 | 0.01 | 0.01 | 27 | 1019.8 |
| 20260906192240 | 91 | 267 | 7.0 | 8.0 | 0.00 | 0.01 | 0.01 | 28 | 1019.9 |
| 20260906191739 | 91 | 225 | 8.0 | 10.0 | 0.00 | 0.01 | 0.01 | 28 | 1020.1 |
| 20260906191233 | 92 | 236 | 6.0 | 7.0 | 0.00 | 0.01 | 0.01 | 27 | 1020.1 |
| 20260906190728 | 90 | 221 | 1.0 | 1.0 | 0.00 | 0.01 | 0.01 | 28 | 1020.2 |
| 20260906190222 | 90 | 258 | 7.0 | 7.0 | 0.00 | 0.01 | 0.01 | 28 | 1020.2 |
| 20260906185722 | 89 | 244 | 6.0 | 10.0 | 0.00 | 0.01 | 0.01 | 29 | 1020.3 |
| 20260906185221 | 89 | 288 | 5.0 | 7.0 | 0.00 | 0.01 | 0.01 | 31 | 1020.2 |
| 20260906184715 | 89 | 189 | 1.0 | 1.0 | 0.00 | 0.01 | 0.01 | 31 | 1020.3 |
| 20260906184211 | 90 | 182 | 5.0 | 6.0 | 0.00 | 0.01 | 0.01 | 31 | 1020.4 |
| 20260906183707 | 89 | 195 | 5.0 | 6.0 | 0.00 | 0.01 | 0.01 | 32 | 1020.5 |
| 20260906183203 | 89 | 157 | 6.0 | 7.0 | 0.00 | 0.01 | 0.01 | 31 | 1020.8 |
| 20260906182703 | 89 | 249 | 7.0 | 7.0 | 0.00 | 0.01 | 0.01 | 31 | 1020.5 |
| 20260906182158 | 89 | 202 | 8.0 | 9.0 | 0.00 | 0.01 | 0.01 | 31 | 1020.7 |
| 20260906181653 | 88 | 196 | 7.0 | 8.0 | 0.00 | 0.01 | 0.01 | 33 | 1020.8 |
| 20260906181149 | 89 | 196 | 2.0 | 2.0 | 0.00 | 0.01 | 0.01 | 33 | 1021.0 |
| 20260906180644 | 88 | 199 | 8.0 | 9.0 | 0.00 | 0.01 | 0.01 | 32 | 1021.1 |
| 20260906180139 | 87 | 124 | 3.0 | 3.0 | 0.00 | 0.01 | 0.01 | 34 | 1021.0 |
| 20260906175637 | 87 | 296 | 6.0 | 7.0 | 0.00 | 0.01 | 0.01 | 33 | 1021.2 |
| 20260906175132 | 87 | 275 | 5.0 | 6.0 | 0.00 | 0.01 | 0.01 | 34 | 1021.4 |
| 20260906174630 | 87 | 243 | 6.0 | 7.0 | 0.00 | 0.01 | 0.01 | 33 | 1021.5 |
| 20260906174126 | 88 | 247 | 7.0 | 9.0 | 0.00 | 0.01 | 0.01 | 33 | 1021.4 |
| 20260906173620 | 87 | 174 | 6.0 | 7.0 | 0.00 | 0.01 | 0.01 | 37 | 1021.5 |
| 20260906173115 | 86 | 203 | 12.0 | 14.0 | 0.00 | 0.01 | 0.01 | 36 | 1021.9 |
| 20260906172609 | 86 | 159 | 11.0 | 13.0 | 0.00 | 0.01 | 0.01 | 38 | 1021.9 |
| 20260906172106 | 86 | 170 | 4.0 | 5.0 | 0.00 | 0.01 | 0.01 | 39 | 1021.9 |
| 20260906171605 | 86 | 148 | 9.0 | 11.0 | 0.00 | 0.01 | 0.01 | 38 | 1022.0 |
| 20260906171101 | 85 | 188 | 9.0 | 10.0 | 0.00 | 0.01 | 0.01 | 39 | 1022.0 |
| 20260906170556 | 86 | 144 | 7.0 | 11.0 | 0.00 | 0.01 | 0.01 | 39 | 1022.1 |
| 20260906170055 | 85 | 180 | 7.0 | 9.0 | 0.00 | 0.01 | 0.01 | 40 | 1022.3 |
| 20260906165552 | 86 | 166 | 11.0 | 13.0 | 0.00 | 0.01 | 0.01 | 41 | 1022.0 |
| 20260906165047 | 85 | 168 | 6.0 | 8.0 | 0.00 | 0.01 | 0.01 | 40 | 1022.2 |
| 20260906164546 | 85 | 175 | 9.0 | 11.0 | 0.00 | 0.01 | 0.01 | 40 | 1022.1 |
| 20260906164042 | 84 | 200 | 6.0 | 8.0 | 0.00 | 0.01 | 0.01 | 44 | 1022.0 |
| 20260906163537 | 83 | 127 | 8.0 | 9.0 | 0.00 | 0.01 | 0.01 | 44 | 1022.4 |
| 20260906163033 | 83 | 156 | 11.0 | 11.0 | 0.00 | 0.01 | 0.01 | 46 | 1022.5 |
| 20260906162530 | 82 | 174 | 12.0 | 14.0 | 0.00 | 0.01 | 0.01 | 45 | 1022.3 |
| 20260906162025 | 82 | 174 | 13.0 | 15.0 | 0.00 | 0.01 | 0.01 | 46 | 1022.4 |
| 20260906161520 | 82 | 184 | 13.0 | 14.0 | 0.00 | 0.01 | 0.01 | 47 | 1022.3 |
| 20260906161019 | 82 | 159 | 7.0 | 10.0 | 0.00 | 0.01 | 0.01 | 47 | 1022.5 |
| 20260906160518 | 82 | 191 | 9.0 | 10.0 | 0.00 | 0.01 | 0.01 | 47 | 1022.8 |
| 20260906160017 | 80 | 197 | 12.0 | 16.0 | 0.00 | 0.01 | 0.01 | 49 | 1022.8 |
| 20260906155514 | 80 | 170 | 10.0 | 13.0 | 0.00 | 0.01 | 0.01 | 49 | 1022.4 |
| 20260906155011 | 80 | 160 | 11.0 | 13.0 | 0.00 | 0.01 | 0.01 | 50 | 1022.5 |
| 20260906154506 | 79 | 179 | 11.0 | 14.0 | 0.00 | 0.01 | 0.01 | 51 | 1022.7 |
| 20260906154004 | 79 | 168 | 16.0 | 17.0 | 0.00 | 0.01 | 0.01 | 50 | 1022.8 |
| 20260906153503 | 79 | 179 | 13.0 | 15.0 | 0.00 | 0.01 | 0.01 | 52 | 1022.9 |
| 20260906152959 | 78 | 183 | 12.0 | 14.0 | 0.00 | 0.01 | 0.01 | 53 | 1022.9 |
| 20260906152453 | 78 | 188 | 10.0 | 15.0 | 0.00 | 0.01 | 0.01 | 53 | 1023.1 |
| 20260906151952 | 77 | 166 | 12.0 | 15.0 | 0.00 | 0.01 | 0.01 | 54 | 1022.7 |
| 20260906151448 | 77 | 176 | 12.0 | 14.0 | 0.00 | 0.01 | 0.01 | 54 | 1022.9 |
| 20260906150944 | 77 | 172 | 12.0 | 14.0 | 0.00 | 0.01 | 0.01 | 55 | 1022.9 |
| 20260906150439 | 78 | 167 | 13.0 | 15.0 | 0.00 | 0.01 | 0.01 | 53 | 1023.0 |
| 20260906145938 | 77 | 170 | 9.0 | 10.0 | 0.00 | 0.01 | 0.01 | 53 | 1022.9 |
| 20260906145438 | 77 | 184 | 11.0 | 14.0 | 0.00 | 0.01 | 0.01 | 55 | 1022.9 |
| 20260906144932 | 76 | 160 | 10.0 | 11.0 | 0.00 | 0.01 | 0.01 | 56 | 1023.1 |
| 20260906144427 | 75 | 170 | 11.0 | 13.0 | 0.00 | 0.01 | 0.01 | 57 | 1022.9 |
| 20260906143922 | 76 | 164 | 12.0 | 14.0 | 0.00 | 0.01 | 0.01 | 57 | 1022.8 |
| 20260906143418 | 75 | 176 | 11.0 | 14.0 | 0.00 | 0.01 | 0.01 | 59 | 1022.9 |
| 20260906142914 | 74 | 184 | 11.0 | 11.0 | 0.00 | 0.01 | 0.01 | 60 | 1022.7 |
| 20260906142413 | 74 | 170 | 12.0 | 13.0 | 0.00 | 0.01 | 0.01 | 60 | 1023.0 |
| 20260906141908 | 73 | 207 | 11.0 | 13.0 | 0.00 | 0.01 | 0.01 | 62 | 1022.9 |
| 20260906141408 | 72 | 168 | 9.0 | 10.0 | 0.00 | 0.01 | 0.01 | 63 | 1022.8 |
| 20260906140902 | 71 | 208 | 9.0 | 11.0 | 0.00 | 0.01 | 0.01 | 65 | 1023.0 |
| 20260906140357 | 70 | 177 | 9.0 | 10.0 | 0.00 | 0.01 | 0.01 | 66 | 1022.8 |
| 20260906135855 | 70 | 162 | 6.0 | 7.0 | 0.00 | 0.01 | 0.01 | 67 | 1022.9 |
| 20260906135354 | 69 | 193 | 5.0 | 6.0 | 0.00 | 0.01 | 0.01 | 68 | 1022.7 |
| 20260906134850 | 68 | 186 | 4.0 | 5.0 | 0.00 | 0.01 | 0.01 | 71 | 1023.1 |
| 20260906134345 | 67 | 215 | 4.0 | 5.0 | 0.00 | 0.01 | 0.01 | 73 | 1022.8 |
| 20260906133840 | 66 | 190 | 3.0 | 3.0 | 0.00 | 0.01 | 0.01 | 74 | 1022.9 |
| 20260906133336 | 66 | 204 | 3.0 | 3.0 | 0.00 | 0.01 | 0.01 | 75 | 1022.8 |
| 20260906132831 | 65 | 224 | 4.0 | 5.0 | 0.00 | 0.01 | 0.01 | 76 | 1022.8 |
| 20260906132327 | 65 | 187 | 2.0 | 3.0 | 0.00 | 0.01 | 0.01 | 77 | 1022.8 |
| 20260906131822 | 64 | 208 | 3.0 | 3.0 | 0.00 | 0.01 | 0.01 | 77 | 1022.8 |
| 20260906131317 | 64 | 198 | 3.0 | 3.0 | 0.00 | 0.01 | 0.01 | 77 | 1022.8 |
| 20260906130813 | 64 | 190 | 3.0 | 3.0 | 0.00 | 0.01 | 0.01 | 78 | 1022.8 |
| 20260906130313 | 63 | 219 | 4.0 | 5.0 | 0.00 | 0.01 | 0.01 | 79 | 1022.8 |
| 20260906125812 | 63 | 178 | 2.0 | 2.0 | 0.00 | 0.01 | 0.01 | 78 | 1022.7 |
| 20260906125309 | 63 | 160 | 1.0 | 1.0 | 0.00 | 0.01 | 0.01 | 78 | 1022.7 |
| 20260906124804 | 63 | 187 | 3.0 | 3.0 | 0.00 | 0.01 | 0.01 | 78 | 1022.9 |
| 20260906124300 | 63 | 157 | 1.0 | 2.0 | 0.00 | 0.01 | 0.01 | 78 | 1022.7 |
| 20260906123759 | 63 | 132 | 1.0 | 1.0 | 0.00 | 0.01 | 0.01 | 78 | 1022.7 |
| 20260906123254 | 63 | 104 | 1.0 | 1.0 | 0.00 | 0.01 | 0.01 | 77 | 1022.7 |
| 20260906122754 | 63 | 109 | 2.0 | 2.0 | 0.00 | 0.01 | 0.01 | 78 | 1022.9 |
| 20260906122249 | 63 | 51 | 1.0 | 2.0 | 0.00 | 0.01 | 0.01 | 79 | 1022.7 |
| 20260906121745 | 63 | 161 | 0.0 | 0.0 | 0.00 | 0.01 | 0.01 | 78 | 1022.8 |
| 20260906121242 | 62 | 181 | 0.0 | 1.0 | 0.00 | 0.01 | 0.01 | 78 | 1022.5 |
| 20260906120737 | 63 | 181 | 1.0 | 1.0 | 0.00 | 0.01 | 0.01 | 77 | 1022.8 |
| 20260906120234 | 64 | 177 | 3.0 | 3.0 | 0.00 | 0.01 | 0.01 | 77 | 1022.5 |
| 20260906115729 | 64 | 204 | 3.0 | 5.0 | 0.00 | 0.01 | 0.01 | 77 | 1022.5 |
| 20260906115224 | 64 | 199 | 2.0 | 2.0 | 0.00 | 0.01 | 0.01 | 77 | 1022.7 |
| 20260906114723 | 64 | 240 | 2.0 | 2.0 | 0.00 | 0.01 | 0.01 | 77 | 1022.4 |
| 20260906114219 | 64 | 266 | 1.0 | 1.0 | 0.00 | 0.01 | 0.01 | 76 | 1022.5 |
| 20260906113714 | 65 | 278 | 2.0 | 2.0 | 0.00 | 0.01 | 0.01 | 75 | 1022.7 |
| 20260906113213 | 65 | 276 | 1.0 | 1.0 | 0.00 | 0.01 | 0.01 | 75 | 1022.8 |
| 20260906112712 | 65 | 259 | 2.0 | 2.0 | 0.00 | 0.01 | 0.01 | 75 | 1022.9 |
| 20260906112204 | 65 | 236 | 2.0 | 2.0 | 0.00 | 0.01 | 0.01 | 75 | 1022.4 |
| 20260906111703 | 65 | 245 | 2.0 | 3.0 | 0.00 | 0.01 | 0.01 | 75 | 1022.4 |
| 20260906111157 | 66 | 278 | 1.0 | 2.0 | 0.00 | 0.01 | 0.01 | 74 | 1022.3 |
| 20260906110653 | 66 | 164 | 2.0 | 2.0 | 0.00 | 0.01 | 0.01 | 73 | 1022.7 |
| 20260906110148 | 65 | 11 | 1.0 | 1.0 | 0.00 | 0.01 | 0.01 | 74 | 1022.5 |
| 20260906105642 | 66 | 33 | 0.0 | 1.0 | 0.00 | 0.01 | 0.01 | 74 | 1022.5 |
| 20260906105138 | 66 | 25 | 3.0 | 3.0 | 0.00 | 0.01 | 0.01 | 73 | 1022.7 |
| 20260906104638 | 67 | 24 | 1.0 | 1.0 | 0.00 | 0.01 | 0.01 | 72 | 1022.7 |
| 20260906104137 | 68 | 71 | 2.0 | 2.0 | 0.00 | 0.01 | 0.01 | 70 | 1022.4 |
| 20260906103635 | 68 | 147 | 6.0 | 7.0 | 0.00 | 0.01 | 0.01 | 69 | 1022.5 |
| 20260906103130 | 69 | 145 | 6.0 | 9.0 | 0.00 | 0.01 | 0.01 | 69 | 1022.3 |
| 20260906102625 | 69 | 163 | 8.0 | 10.0 | 0.00 | 0.01 | 0.01 | 69 | 1022.5 |
| 20260906102120 | 69 | 134 | 7.0 | 8.0 | 0.00 | 0.01 | 0.01 | 69 | 1022.0 |
| 20260906101614 | 69 | 173 | 9.0 | 11.0 | 0.00 | 0.01 | 0.01 | 68 | 1022.1 |
| 20260906101109 | 69 | 164 | 11.0 | 13.0 | 0.00 | 0.01 | 0.01 | 69 | 1022.2 |
| 20260906100605 | 69 | 161 | 9.0 | 11.0 | 0.00 | 0.01 | 0.01 | 68 | 1021.9 |
| 20260906100105 | 69 | 148 | 8.0 | 9.0 | 0.00 | 0.01 | 0.01 | 69 | 1022.1 |
| 20260906095604 | 69 | 154 | 12.0 | 14.0 | 0.00 | 0.01 | 0.01 | 68 | 1021.9 |
| 20260906095100 | 69 | 152 | 11.0 | 13.0 | 0.00 | 0.01 | 0.01 | 68 | 1022.1 |
| 20260906094559 | 69 | 159 | 8.0 | 9.0 | 0.00 | 0.01 | 0.01 | 68 | 1022.2 |
| 20260906094055 | 69 | 160 | 9.0 | 10.0 | 0.00 | 0.01 | 0.01 | 68 | 1022.1 |
| 20260906093550 | 70 | 162 | 13.0 | 14.0 | 0.00 | 0.01 | 0.01 | 68 | 1022.2 |
| 20260906093045 | 70 | 158 | 14.0 | 16.0 | 0.07 | 0.01 | 0.01 | 68 | 1022.1 |
| 20260906092540 | 69 | 152 | 8.0 | 9.0 | 0.07 | 0.01 | 0.01 | 70 | 1021.9 |
| 20260906092035 | 71 | 175 | 11.0 | 15.0 | 0.00 | 0.00 | 0.00 | 67 | 1022.5 |
| 20260906091531 | 71 | 168 | 12.0 | 13.0 | 0.00 | 0.00 | 0.00 | 65 | 1022.1 |
| 20260906091027 | 71 | 169 | 13.0 | 15.0 | 0.00 | 0.00 | 0.00 | 65 | 1022.1 |
| 20260906090522 | 71 | 157 | 11.0 | 13.0 | 0.00 | 0.00 | 0.00 | 65 | 1021.9 |
| 20260906090017 | 71 | 171 | 11.0 | 14.0 | 0.00 | 0.00 | 0.00 | 64 | 1022.1 |
| 20260906085516 | 72 | 149 | 12.0 | 15.0 | 0.00 | 0.00 | 0.00 | 64 | 1022.1 |
| 20260906085015 | 71 | 152 | 8.0 | 10.0 | 0.00 | 0.00 | 0.00 | 63 | 1022.0 |
| 20260906084510 | 71 | 159 | 9.0 | 9.0 | 0.00 | 0.00 | 0.00 | 63 | 1022.0 |
| 20260906084009 | 71 | 138 | 7.0 | 8.0 | 0.00 | 0.00 | 0.00 | 62 | 1022.0 |
| 20260906083505 | 70 | 139 | 6.0 | 7.0 | 0.00 | 0.00 | 0.00 | 62 | 1022.2 |
| 20260906083004 | 70 | 144 | 4.0 | 5.0 | 0.00 | 0.00 | 0.00 | 61 | 1022.1 |
| 20260906082459 | 70 | 154 | 6.0 | 7.0 | 0.00 | 0.00 | 0.00 | 61 | 1022.3 |
| 20260906081955 | 70 | 136 | 5.0 | 6.0 | 0.00 | 0.00 | 0.00 | 61 | 1022.1 |
| 20260906081450 | 70 | 135 | 3.0 | 3.0 | 0.00 | 0.00 | 0.00 | 61 | 1022.0 |
| 20260906080946 | 69 | 143 | 5.0 | 5.0 | 0.00 | 0.00 | 0.00 | 63 | 1022.2 |
| 20260906080442 | 69 | 126 | 1.0 | 1.0 | 0.00 | 0.00 | 0.00 | 62 | 1022.5 |
| 20260906075937 | 69 | 129 | 1.0 | 2.0 | 0.00 | 0.00 | 0.00 | 63 | 1022.2 |
| 20260906075431 | 68 | 82 | 1.0 | 1.0 | 0.00 | 0.00 | 0.00 | 63 | 1022.2 |
| 20260906074927 | 68 | 70 | 0.0 | 0.0 | 0.00 | 0.00 | 0.00 | 62 | 1022.3 |
| 20260906074421 | 68 | 41 | 2.0 | 2.0 | 0.00 | 0.00 | 0.00 | 62 | 1022.5 |
| 20260906073920 | 70 | 73 | 3.0 | 3.0 | 0.00 | 0.00 | 0.00 | 60 | 1022.4 |
| 20260906073415 | 71 | 204 | 2.0 | 2.0 | 0.00 | 0.00 | 0.00 | 59 | 1022.5 |
| 20260906072911 | 70 | 41 | 3.0 | 3.0 | 0.00 | 0.00 | 0.00 | 59 | 1022.3 |
| 20260906072406 | 69 | 320 | 3.0 | 3.0 | 0.00 | 0.00 | 0.00 | 62 | 1022.4 |
| 20260906071902 | 69 | 29 | 2.0 | 2.0 | 0.00 | 0.00 | 0.00 | 59 | 1022.4 |
| 20260906071357 | 69 | 94 | 0.0 | 0.0 | 0.00 | 0.00 | 0.00 | 59 | 1022.5 |
| 20260906070853 | 69 | 83 | 1.0 | 2.0 | 0.00 | 0.00 | 0.00 | 58 | 1022.5 |
| 20260906070349 | 70 | 103 | 0.0 | 0.0 | 0.00 | 0.00 | 0.00 | 57 | 1022.5 |
| 20260906065844 | 70 | 92 | 2.0 | 2.0 | 0.00 | 0.00 | 0.00 | 53 | 1022.5 |
| 20260906065339 | 71 | 179 | 1.0 | 1.0 | 0.00 | 0.00 | 0.00 | 56 | 1022.4 |
| 20260906064834 | 71 | 233 | 1.0 | 2.0 | 0.00 | 0.00 | 0.00 | 56 | 1022.3 |
| 20260906064330 | 71 | 155 | 1.0 | 2.0 | 0.00 | 0.00 | 0.00 | 54 | 1022.7 |
| 20260906063824 | 72 | 172 | 3.0 | 3.0 | 0.00 | 0.00 | 0.00 | 53 | 1022.4 |
| 20260906063320 | 71 | 133 | 1.0 | 2.0 | 0.00 | 0.00 | 0.00 | 52 | 1022.4 |
| 20260906062815 | 70 | 119 | 0.0 | 1.0 | 0.00 | 0.00 | 0.00 | 49 | 1022.5 |
| 20260906062314 | 69 | 85 | 1.0 | 1.0 | 0.00 | 0.00 | 0.00 | 49 | 1022.9 |
| 20260906061810 | 69 | 71 | 0.0 | 1.0 | 0.00 | 0.00 | 0.00 | 47 | 1022.8 |
| 20260906061306 | 68 | 118 | 0.0 | 0.0 | 0.00 | 0.00 | 0.00 | 48 | 1022.8 |
| 20260906060801 | 69 | 118 | 0.0 | 1.0 | 0.00 | 0.00 | 0.00 | 44 | 1023.2 |
| 20260906060259 | 67 | 69 | 1.0 | 1.0 | 0.00 | 0.00 | 0.00 | 47 | 1023.0 |
| 20260906055754 | 66 | 63 | 1.0 | 1.0 | 0.00 | 0.00 | 0.00 | 45 | 1023.0 |
| 20260906055249 | 66 | 213 | 0.0 | 0.0 | 0.00 | 0.00 | 0.00 | 45 | 1023.0 |
| 20260906054744 | 65 | 215 | 1.0 | 1.0 | 0.00 | 0.00 | 0.00 | 45 | 1023.0 |
| 20260906054240 | 65 | 177 | 1.0 | 1.0 | 0.00 | 0.00 | 0.00 | 45 | 1022.9 |
| 20260906053737 | 66 | 167 | 2.0 | 2.0 | 0.00 | 0.00 | 0.00 | 45 | 1022.8 |
| 20260906053232 | 66 | 65 | 0.0 | 1.0 | 0.00 | 0.00 | 0.00 | 43 | 1022.7 |
| 20260906052727 | 65 | 108 | 1.0 | 1.0 | 0.00 | 0.00 | 0.00 | 43 | 1022.9 |
| 20260906052223 | 66 | 136 | 0.0 | 0.0 | 0.00 | 0.00 | 0.00 | 43 | 1023.0 |
| 20260906051720 | 66 | 248 | 0.0 | 0.0 | 0.00 | 0.00 | 0.00 | 43 | 1022.9 |
| 20260906051219 | 67 | 221 | 2.0 | 2.0 | 0.00 | 0.00 | 0.00 | 41 | 1022.8 |
| 20260906050714 | 66 | 151 | 0.0 | 0.0 | 0.00 | 0.00 | 0.00 | 41 | 1022.8 |
| 20260906050210 | 66 | 206 | 0.0 | 1.0 | 0.00 | 0.00 | 0.00 | 41 | 1022.9 |
| 20260906045708 | 66 | 45 | 1.0 | 2.0 | 0.00 | 0.00 | 0.00 | 41 | 1022.7 |
| 20260906045203 | 66 | 198 | 1.0 | 2.0 | 0.00 | 0.00 | 0.00 | 42 | 1023.0 |
| 20260906044659 | 66 | 119 | 0.0 | 0.0 | 0.00 | 0.00 | 0.00 | 43 | 1022.8 |
| 20260906044154 | 66 | 120 | 1.0 | 1.0 | 0.00 | 0.00 | 0.00 | 41 | 1023.0 |
| 20260906043650 | 67 | 200 | 1.0 | 2.0 | 0.00 | 0.00 | 0.00 | 43 | 1022.7 |
| 20260906043146 | 67 | 54 | 0.0 | 0.0 | 0.00 | 0.00 | 0.00 | 43 | 1022.9 |
| 20260906042645 | 68 | 53 | 1.0 | 1.0 | 0.00 | 0.00 | 0.00 | 42 | 1022.9 |
| 20260906042139 | 68 | 53 | 1.0 | 1.0 | 0.00 | 0.00 | 0.00 | 41 | 1022.9 |
| 20260906041635 | 68 | 215 | 3.0 | 3.0 | 0.00 | 0.00 | 0.00 | 42 | 1022.7 |
| 20260906041130 | 69 | 73 | 1.0 | 2.0 | 0.00 | 0.00 | 0.00 | 41 | 1022.4 |
| 20260906040625 | 69 | 180 | 0.0 | 0.0 | 0.00 | 0.00 | 0.00 | 41 | 1022.4 |
| 20260906040121 | 69 | 200 | 2.0 | 2.0 | 0.00 | 0.00 | 0.00 | 40 | 1022.7 |
| 20260906035616 | 70 | 42 | 1.0 | 2.0 | 0.00 | 0.00 | 0.00 | 39 | 1022.8 |
| 20260906035111 | 72 | 42 | 0.0 | 0.0 | 0.00 | 0.00 | 0.00 | 35 | 1022.7 |
| 20260906034606 | 72 | 42 | 1.0 | 1.0 | 0.00 | 0.00 | 0.00 | 35 | 1022.5 |
| 20260906034101 | 71 | 42 | 1.0 | 1.0 | 0.00 | 0.00 | 0.00 | 36 | 1022.7 |
| 20260906033556 | 71 | 42 | 0.0 | 0.0 | 0.00 | 0.00 | 0.00 | 39 | 1022.5 |
| 20260906033051 | 74 | 50 | 1.0 | 1.0 | 0.00 | 0.00 | 0.00 | 36 | 1022.4 |
| 20260906032548 | 73 | 74 | 1.0 | 1.0 | 0.00 | 0.00 | 0.00 | 37 | 1022.4 |
| 20260906032048 | 76 | 55 | 1.0 | 1.0 | 0.00 | 0.00 | 0.00 | 35 | 1022.4 |
| 20260906031543 | 75 | 12 | 3.0 | 3.0 | 0.00 | 0.00 | 0.00 | 35 | 1022.4 |
| 20260906031039 | 75 | 55 | 1.0 | 1.0 | 0.00 | 0.00 | 0.00 | 35 | 1022.5 |
| 20260906030538 | 75 | 50 | 1.0 | 2.0 | 0.00 | 0.00 | 0.00 | 34 | 1022.1 |
| 20260906030037 | 76 | 41 | 1.0 | 1.0 | 0.00 | 0.00 | 0.00 | 33 | 1022.3 |
| 20260906025532 | 76 | 54 | 3.0 | 3.0 | 0.00 | 0.00 | 0.00 | 32 | 1022.2 |
| 20260906025030 | 74 | 148 | 3.0 | 3.0 | 0.00 | 0.00 | 0.00 | 32 | 1022.3 |
| 20260906024525 | 75 | 147 | 2.0 | 2.0 | 0.00 | 0.00 | 0.00 | 31 | 1022.3 |
| 20260906024020 | 76 | 47 | 1.0 | 1.0 | 0.00 | 0.00 | 0.00 | 31 | 1021.8 |
| 20260906023516 | 76 | 35 | 1.0 | 1.0 | 0.00 | 0.00 | 0.00 | 31 | 1021.5 |
| 20260906023011 | 77 | 9 | 3.0 | 3.0 | 0.00 | 0.00 | 0.00 | 30 | 1021.4 |
| 20260906022506 | 77 | 20 | 2.0 | 2.0 | 0.00 | 0.00 | 0.00 | 30 | 1021.5 |
| 20260906022001 | 77 | 10 | 3.0 | 3.0 | 0.00 | 0.00 | 0.00 | 29 | 1021.2 |
| 20260906021456 | 77 | 15 | 2.0 | 2.0 | 0.00 | 0.00 | 0.00 | 29 | 1021.3 |
| 20260906020951 | 78 | 5 | 3.0 | 3.0 | 0.00 | 0.00 | 0.00 | 29 | 1021.3 |
| 20260906020444 | 79 | 18 | 3.0 | 3.0 | 0.00 | 0.00 | 0.00 | 29 | 1021.2 |
| 20260906015938 | 79 | 8 | 2.0 | 2.0 | 0.00 | 0.00 | 0.00 | 28 | 1021.1 |
| 20260906015433 | 81 | 7 | 3.0 | 3.0 | 0.00 | 0.00 | 0.00 | 27 | 1020.8 |
| 20260906014933 | 81 | 30 | 2.0 | 2.0 | 0.00 | 0.00 | 0.00 | 27 | 1021.1 |
| 20260906014432 | 82 | 28 | 3.0 | 3.0 | 0.00 | 0.00 | 0.00 | 26 | 1020.8 |
| 20260906013929 | 83 | 49 | 2.0 | 2.0 | 0.00 | 0.00 | 0.00 | 26 | 1021.1 |
| 20260906013424 | 83 | 35 | 2.0 | 2.0 | 0.00 | 0.00 | 0.00 | 25 | 1020.8 |
| 20260906012920 | 84 | 48 | 3.0 | 3.0 | 0.00 | 0.00 | 0.00 | 25 | 1021.0 |
| 20260906012420 | 84 | 47 | 2.0 | 2.0 | 0.00 | 0.00 | 0.00 | 25 | 1021.1 |
| 20260906011919 | 85 | 35 | 3.0 | 3.0 | 0.00 | 0.00 | 0.00 | 24 | 1021.1 |
| 20260906011414 | 86 | 44 | 3.0 | 5.0 | 0.00 | 0.00 | 0.00 | 24 | 1021.0 |
| 20260906010909 | 87 | 45 | 3.0 | 3.0 | 0.00 | 0.00 | 0.00 | 23 | 1021.0 |
| 20260906010405 | 87 | 20 | 5.0 | 9.0 | 0.00 | 0.00 | 0.00 | 23 | 1020.8 |
| 20260906005901 | 88 | 62 | 4.0 | 5.0 | 0.00 | 0.00 | 0.00 | 23 | 1020.8 |
| 20260906005400 | 88 | 31 | 5.0 | 7.0 | 0.00 | 0.00 | 0.00 | 22 | 1021.0 |
| 20260906004859 | 89 | 47 | 5.0 | 7.0 | 0.00 | 0.00 | 0.00 | 22 | 1020.8 |
| 20260906004353 | 89 | 32 | 7.0 | 8.0 | 0.00 | 0.00 | 0.00 | 21 | 1021.0 |
| 20260906003849 | 89 | 59 | 2.0 | 2.0 | 0.00 | 0.00 | 0.00 | 22 | 1020.8 |
| 20260906003344 | 89 | 34 | 5.0 | 6.0 | 0.00 | 0.00 | 0.00 | 21 | 1020.7 |
| 20260906002840 | 90 | 46 | 7.0 | 8.0 | 0.00 | 0.00 | 0.00 | 21 | 1020.6 |
| 20260906002339 | 91 | 60 | 5.0 | 6.0 | 0.00 | 0.00 | 0.00 | 21 | 1020.8 |
| 20260906001835 | 91 | 47 | 2.0 | 3.0 | 0.00 | 0.00 | 0.00 | 20 | 1021.0 |
| 20260906001330 | 91 | 39 | 3.0 | 3.0 | 0.00 | 0.00 | 0.00 | 21 | 1020.6 |
| 20260906000825 | 91 | 47 | 3.0 | 3.0 | 0.00 | 0.00 | 0.00 | 20 | 1021.0 |
| 20260906000320 | 91 | 18 | 2.0 | 2.0 | 0.00 | 0.00 | 0.00 | 21 | 1020.7 |
| 20260905235819 | 91 | 343 | 4.0 | 6.0 | 0.00 | 0.00 | 0.00 | 20 | 1020.7 |
| 20260905235314 | 91 | 33 | 2.0 | 2.0 | 0.00 | 0.00 | 0.00 | 20 | 1020.7 |
| 20260905234810 | 91 | 48 | 3.0 | 3.0 | 0.00 | 0.00 | 0.00 | 20 | 1020.7 |
| 20260905234305 | 91 | 62 | 4.0 | 5.0 | 0.00 | 0.00 | 0.00 | 20 | 1020.8 |
| 20260905233759 | 92 | 19 | 4.0 | 5.0 | 0.00 | 0.00 | 0.00 | 20 | 1020.7 |
| 20260905233254 | 93 | 33 | 4.0 | 5.0 | 0.00 | 0.00 | 0.00 | 20 | 1020.4 |
| 20260905232753 | 92 | 195 | 4.0 | 5.0 | 0.00 | 0.00 | 0.00 | 20 | 1020.6 |
| 20260905232249 | 92 | 223 | 3.0 | 5.0 | 0.00 | 0.00 | 0.00 | 20 | 1020.4 |
| 20260905231745 | 93 | 252 | 5.0 | 8.0 | 0.00 | 0.00 | 0.00 | 20 | 1020.5 |
| 20260905231240 | 91 | 211 | 4.0 | 5.0 | 0.00 | 0.00 | 0.00 | 20 | 1020.5 |
| 20260905230737 | 91 | 230 | 7.0 | 8.0 | 0.00 | 0.00 | 0.00 | 20 | 1020.4 |
| 20260905230234 | 92 | 258 | 4.0 | 6.0 | 0.00 | 0.00 | 0.00 | 20 | 1020.5 |
| 20260905225734 | 92 | 227 | 3.0 | 5.0 | 0.00 | 0.00 | 0.00 | 20 | 1020.4 |
| 20260905225229 | 94 | 161 | 1.0 | 2.0 | 0.00 | 0.00 | 0.00 | 19 | 1020.4 |
| 20260905224728 | 95 | 8 | 2.0 | 2.0 | 0.00 | 0.00 | 0.00 | 19 | 1020.4 |
| 20260905224224 | 95 | 44 | 0.0 | 0.0 | 0.00 | 0.00 | 0.00 | 19 | 1020.5 |
| 20260905223720 | 93 | 35 | 1.0 | 2.0 | 0.00 | 0.00 | 0.00 | 19 | 1020.4 |
| 20260905223217 | 93 | 241 | 2.0 | 2.0 | 0.00 | 0.00 | 0.00 | 19 | 1020.6 |
| 20260905222712 | 92 | 145 | 1.0 | 2.0 | 0.00 | 0.00 | 0.00 | 19 | 1020.3 |
| 20260905222211 | 92 | 321 | 1.0 | 2.0 | 0.00 | 0.00 | 0.00 | 20 | 1020.6 |
| 20260905221707 | 91 | 272 | 5.0 | 7.0 | 0.00 | 0.00 | 0.00 | 20 | 1020.7 |
| 20260905221204 | 92 | 272 | 9.0 | 10.0 | 0.00 | 0.00 | 0.00 | 20 | 1020.6 |
| 20260905220659 | 92 | 232 | 5.0 | 7.0 | 0.00 | 0.00 | 0.00 | 20 | 1020.7 |
| 20260905220155 | 92 | 305 | 4.0 | 6.0 | 0.00 | 0.00 | 0.00 | 20 | 1021.0 |
| 20260905215654 | 94 | 285 | 9.0 | 10.0 | 0.00 | 0.00 | 0.00 | 18 | 1021.1 |